[[{"header":{"parameterUnit":"m.s-1","parameterCategory":1,"la1":30.2991,"la2":30.254,"lo1":-89.0895,"lo2":-89.0444,"dy":0.0017,"dx":0.0017,"nx":28,"ny":28,"refTime":"2024-12-18T03:00:00:Z","depth":0,"parameterNumber":2,"parameterNumberName":"U-component_of_WINDS"},"data":[0,0,0,0,0,0,0,0,0,0,0,0,0,0,0,0,0,0,0,0,0,0,0,0,0,0,0,0,0,0,0,0,0,0,0,0,0,0,0,0,0,0,0,0,0,0,0,0,0,0,0,0,0,0,0,0,0,0,-0.8138,-0.8138,0,-0.8103,-0.8103,-0.8102,-0.8046,-0.8045,-0.8044,-0.8043,-0.8009,-0.8009,-0.8009,0,0,0,0,0,0,0,0,0,0,0,0,0,-0.8158,-0.8158,-0.8138,-0.8138,-0.8137,-0.8103,-0.8103,-0.8102,-0.8046,-0.8045,-0.8043,-0.8042,-0.8009,-0.8009,-0.8009,0,0,0,0,0,0,0,0,0,0,0,0,0,-0.8139,-0.8158,-0.8138,-0.8105,-0.8102,-0.8103,-0.8103,-0.8102,-0.8046,-0.8045,-0.8043,-0.8042,-0.8009,-0.8009,-0.8009,-0.8041,0,0,-0.8009,-0.8009,0,0,0,0,0,0,0,0,-0.814,-0.8138,-0.811,-0.8107,-0.8103,-0.8077,-0.8097,-0.8082,-0.8047,-0.8067,-0.8043,-0.8041,-0.8033,-0.8031,-0.8028,-0.804,-0.8038,-0.8009,-0.801,-0.801,-0.801,0,0,0,0,0,0,0,-0.8142,-0.814,-0.8124,-0.811,-0.8106,-0.8093,-0.8088,-0.8094,-0.8059,-0.8065,-0.8061,-0.8058,-0.8031,-0.8028,-0.8027,-0.8038,-0.8009,-0.801,-0.801,-0.801,-0.8075,-0.8077,0,0,0,0,0,0,-0.8148,-0.8141,-0.8125,-0.8123,-0.8118,-0.8094,-0.8088,-0.8087,-0.8059,-0.8053,-0.8059,-0.8055,-0.8029,-0.8027,-0.8025,-0.8062,-0.801,-0.801,-0.801,-0.8074,-0.8076,-0.8077,0,0,0,0,0,0,-0.8148,-0.8147,-0.8127,-0.8131,-0.8127,-0.8095,-0.8094,-0.8087,-0.8084,-0.8054,-0.8048,-0.8062,-0.8027,-0.8025,-0.8038,-0.806,-0.801,-0.801,-0.8072,-0.8074,-0.8077,-0.8135,0,0,0,0,0,0,-0.8149,-0.8147,-0.8158,-0.8132,-0.8127,-0.8139,-0.8095,-0.8088,-0.8085,-0.8079,-0.8056,-0.8051,-0.8026,-0.8038,-0.8038,-0.8059,-0.801,-0.807,-0.8073,-0.8076,-0.8131,-0.8139,-0.8146,0,0,0,0,0,-0.815,-0.8176,-0.8159,-0.8158,-0.8141,-0.8141,-0.8138,-0.8109,-0.8087,-0.8098,-0.8079,-0.8051,-0.8058,-0.804,-0.8039,-0.8061,-0.8068,-0.8072,-0.8076,-0.8127,-0.8137,-0.8146,0,0,0,0,0,0,-0.8207,-0.8172,-0.8153,-0.8171,-0.8159,-0.8131,-0.8144,-0.812,-0.8115,-0.811,-0.8074,-0.807,-0.8087,-0.8075,-0.8056,-0.8091,-0.8059,-0.8062,-0.8098,-0.8108,-0.8115,-0.8118,-0.801,0,0,0,0,0,-0.8222,-0.8224,-0.8193,-0.8213,-0.8208,-0.8177,-0.8176,-0.8155,-0.8141,-0.8136,-0.8117,-0.8106,-0.8105,-0.8106,-0.8103,-0.8129,-0.8124,-0.8144,-0.8151,-0.8158,-0.8162,-0.8175,-0.8184,-0.809,-0.809,-0.809,0,0,-0.8252,-0.8233,-0.8237,-0.8224,-0.8212,-0.8216,-0.8173,-0.8179,-0.8182,-0.8137,-0.8147,-0.8134,-0.8119,-0.8138,-0.8146,-0.8129,-0.8187,-0.8163,-0.8168,-0.8168,-0.818,-0.8189,-0.8197,-0.8092,-0.8092,-0.8092,0,0,-0.8309,-0.8295,-0.831,-0.8299,-0.8281,-0.8261,-0.8265,-0.8241,-0.823,-0.824,-0.8207,-0.821,-0.8209,-0.82,-0.8196,-0.8251,-0.8226,-0.8252,-0.8292,-0.8306,-0.8313,-0.8319,-0.834,-0.8348,-0.8256,-0.8256,-0.8256,0,-0.8349,-0.8353,-0.8321,-0.8329,-0.8324,-0.8284,-0.8299,-0.829,-0.8274,-0.8272,-0.8253,-0.8252,-0.8239,-0.8256,-0.827,-0.8268,-0.8272,-0.8254,-0.8314,-0.832,-0.8326,-0.8345,-0.8353,-0.8259,-0.8259,-0.8258,-0.8258,0,-0.8403,-0.8407,-0.8421,-0.8406,-0.8403,-0.8415,-0.8385,-0.8387,-0.8366,-0.8348,-0.836,-0.8343,-0.8337,-0.834,-0.8319,-0.8355,-0.8345,-0.8321,-0.8287,-0.8339,-0.8356,-0.8364,-0.8264,-0.8262,-0.8261,-0.8261,0,0,-0.8495,-0.8462,-0.8468,-0.8461,-0.8439,-0.8442,-0.8452,-0.8446,-0.8449,-0.8439,-0.8447,-0.8449,-0.8427,-0.8421,-0.84,-0.8412,-0.8458,-0.8386,-0.8386,-0.8401,-0.8498,-0.8516,-0.8525,-0.8442,-0.8443,-0.8444,-0.8499,0,-0.8548,-0.8563,-0.8535,-0.8558,-0.8561,-0.8523,-0.8533,-0.8521,-0.8505,-0.8507,-0.8489,-0.8491,-0.8461,-0.8458,-0.8468,-0.8451,-0.8477,-0.8446,-0.845,-0.8451,-0.8455,-0.8534,-0.8553,-0.8606,-0.8506,-0.8507,-0.8508,0,-0.8612,-0.8605,-0.8628,-0.8606,-0.8606,-0.8615,-0.8608,-0.8609,-0.8596,-0.8584,-0.8579,-0.8554,-0.8564,-0.8532,-0.8546,-0.8525,-0.8525,-0.8517,-0.8518,-0.8518,-0.8483,-0.8536,-0.8622,-0.8631,-0.8518,-0.8517,-0.8516,0,-0.8677,-0.8674,-0.8687,-0.8682,-0.8657,-0.8664,-0.8654,-0.8639,-0.8638,-0.8632,-0.8631,-0.8627,-0.8624,-0.8622,-0.8597,-0.8576,-0.8615,-0.858,-0.8605,-0.8606,-0.8615,-0.8615,-0.8703,-0.8615,-0.8615,-0.8615,-0.8615,0,-0.8739,-0.8755,-0.8716,-0.8725,-0.8742,-0.871,-0.8728,-0.8714,-0.8701,-0.8707,-0.8674,-0.8681,-0.8647,-0.865,-0.863,-0.8646,-0.8645,-0.8636,-0.863,-0.8639,-0.864,-0.8639,-0.8635,-0.8617,-0.8616,-0.8616,-0.8616,0,-0.8815,-0.8789,-0.8802,-0.8777,-0.8771,-0.8785,-0.8764,-0.8772,-0.8754,-0.8762,-0.8762,-0.8735,-0.8737,-0.8711,-0.8709,-0.8696,-0.872,-0.8708,-0.8724,-0.8721,-0.8748,-0.8746,-0.8838,-0.8849,-0.8754,-0.8755,-0.8756,0,-0.8857,-0.8868,-0.8845,-0.8846,-0.8838,-0.884,-0.8839,-0.8808,-0.8808,-0.8795,-0.8804,-0.8803,-0.8801,-0.8807,-0.8787,-0.8785,-0.8773,-0.8806,-0.8773,-0.8781,-0.8774,-0.8774,-0.8776,-0.8813,-0.8814,-0.8815,-0.8816,0,-0.8934,-0.8921,-0.8919,-0.8914,-0.8913,-0.8908,-0.89,-0.8904,-0.8871,-0.8873,-0.8874,-0.8873,-0.887,-0.887,-0.8865,-0.8855,-0.8831,-0.8826,-0.8832,-0.8841,-0.885,-0.8846,-0.8744,-0.8824,-0.8823,-0.8823,-0.8822,-0.8822,-0.8994,-0.9002,-0.8988,-0.8988,-0.8979,-0.8973,-0.8979,-0.8962,-0.8963,-0.8958,-0.894,-0.8946,-0.8933,-0.8923,-0.8916,-0.8921,-0.8905,-0.8913,-0.8915,-0.8918,-0.8923,-0.885,-0.8919,-0.8919,-0.8919,-0.8919,-0.8918,0,-0.9069,-0.9058,-0.9059,-0.9049,-0.905,-0.9026,-0.9017,-0.9019,-0.9024,-0.9014,-0.9013,-0.9016,-0.9016,-0.8997,-0.8995,-0.9002,-0.8991,-0.9003,-0.9002,-0.9001,-0.8937,-0.8932,-0.9012,-0.9012,-0.9012,-0.9012,-0.9012,-0.9012,-0.9109,-0.9123,-0.9108,-0.9118,-0.9107,-0.9111,-0.9108,-0.9103,-0.9095,-0.9099,-0.91,-0.9087,-0.9074,-0.9071,-0.9071,-0.9065,-0.9067,-0.9083,-0.9074,-0.9014,-0.9005,-0.8997,-0.8992,-0.9083,-0.9083,-0.9137,-0.9137,-0.9138]},{"header":{"parameterUnit":"m.s-1","parameterCategory":1,"la1":30.2991,"la2":30.254,"lo1":-89.0895,"lo2":-89.0444,"dy":0.0017,"dx":0.0017,"nx":28,"ny":28,"refTime":"2024-12-18T03:00:00:Z","depth":0,"parameterNumber":3,"parameterNumberName":"V-component_of_WINDS"},"data":[0,0,0,0,0,0,0,0,0,0,0,0,0,0,0,0,0,0,0,0,0,0,0,0,0,0,0,0,0,0,0,0,0,0,0,0,0,0,0,0,0,0,0,0,0,0,0,0,0,0,0,0,0,0,0,0,0,0,0.2415,0.2413,0,0.2297,0.2296,0.2294,0.2261,0.2261,0.2262,0.2263,0.2139,0.2135,0.2131,0,0,0,0,0,0,0,0,0,0,0,0,0,0.2608,0.2605,0.2415,0.2413,0.2412,0.2297,0.2296,0.2294,0.2261,0.2261,0.2262,0.2263,0.214,0.2136,0.2131,0,0,0,0,0,0,0,0,0,0,0,0,0,0.251,0.2603,0.2415,0.2381,0.2377,0.2298,0.2296,0.2294,0.226,0.2261,0.2262,0.2263,0.2142,0.2136,0.213,0.2075,0,0,0.2113,0.211,0,0,0,0,0,0,0,0,0.2516,0.2503,0.2388,0.2384,0.2379,0.2295,0.2318,0.222,0.226,0.2305,0.2263,0.2264,0.219,0.218,0.2156,0.2069,0.2064,0.2112,0.2108,0.2106,0.2104,0,0,0,0,0,0,0,0.2523,0.2508,0.2368,0.2386,0.2381,0.2371,0.2359,0.23,0.2243,0.2301,0.2298,0.2285,0.2187,0.2161,0.2153,0.2062,0.2112,0.2107,0.2103,0.2101,0.1924,0.1923,0,0,0,0,0,0,0.2536,0.2514,0.2372,0.2364,0.2451,0.2367,0.2353,0.2321,0.2244,0.2233,0.2284,0.2284,0.2171,0.2159,0.2148,0.2078,0.2106,0.2101,0.2097,0.1925,0.1923,0.1922,0,0,0,0,0,0,0.254,0.2523,0.2376,0.2439,0.2419,0.2363,0.2327,0.2318,0.2292,0.2231,0.2221,0.2268,0.2171,0.2156,0.2093,0.2073,0.2098,0.2093,0.1926,0.1924,0.1923,0.1937,0,0,0,0,0,0,0.2546,0.2525,0.2504,0.2438,0.2416,0.2325,0.2325,0.2315,0.2282,0.228,0.2213,0.2203,0.2171,0.2102,0.2088,0.2065,0.2088,0.1928,0.1925,0.1923,0.1938,0.1936,0.1934,0,0,0,0,0,0.2553,0.2512,0.2503,0.2486,0.2388,0.2323,0.2311,0.2275,0.2281,0.2258,0.222,0.2205,0.2078,0.2096,0.2079,0.2055,0.1929,0.1926,0.1923,0.1939,0.1936,0.1934,0,0,0,0,0,0,0.2575,0.2502,0.2492,0.2429,0.2383,0.2318,0.2289,0.2274,0.2224,0.2225,0.2182,0.2167,0.2107,0.2075,0.2097,0.1997,0.2003,0.1997,0.2021,0.2018,0.2016,0.2024,0.2083,0,0,0,0,0,0.2573,0.2527,0.2466,0.2416,0.2394,0.2345,0.2316,0.2293,0.2243,0.2223,0.2179,0.2131,0.208,0.2047,0.1997,0.1934,0.1918,0.1909,0.1907,0.1905,0.19,0.1864,0.1859,0.1913,0.1913,0.1913,0,0,0.2567,0.2522,0.2495,0.2419,0.2381,0.2334,0.2329,0.2279,0.2243,0.2215,0.2153,0.212,0.2063,0.2,0.197,0.1971,0.1882,0.1902,0.1901,0.1897,0.1861,0.1856,0.1852,0.1911,0.1912,0.1912,0,0,0.2533,0.2494,0.2449,0.2411,0.2353,0.2322,0.2311,0.2248,0.2226,0.2163,0.2141,0.2098,0.2011,0.1971,0.194,0.1892,0.1877,0.1877,0.1866,0.1831,0.1827,0.1823,0.1806,0.18,0.1872,0.1872,0.1872,0,0.2532,0.2461,0.2427,0.2378,0.2345,0.2319,0.2272,0.2237,0.2165,0.2143,0.2145,0.2037,0.1996,0.1924,0.1912,0.1888,0.1873,0.1884,0.1831,0.1826,0.1822,0.1805,0.1799,0.1872,0.1872,0.1872,0.1872,0,0.2464,0.2415,0.2385,0.2318,0.2282,0.2235,0.2192,0.2159,0.214,0.2108,0.2045,0.1996,0.1936,0.1917,0.1897,0.1841,0.1844,0.1839,0.1844,0.1818,0.1801,0.1794,0.1873,0.1873,0.1873,0.1873,0,0,0.2439,0.2355,0.2344,0.2314,0.2249,0.221,0.2162,0.2104,0.2076,0.2028,0.1986,0.1914,0.191,0.1874,0.185,0.182,0.1785,0.1818,0.1816,0.1813,0.172,0.1724,0.1717,0.1775,0.1773,0.1772,0.1725,0,0.2396,0.2309,0.2277,0.2205,0.216,0.2135,0.2092,0.2048,0.2017,0.1973,0.1938,0.1888,0.1886,0.1864,0.1834,0.1795,0.1765,0.1799,0.1734,0.1732,0.1748,0.1708,0.1711,0.1668,0.1718,0.1717,0.1716,0,0.2334,0.2287,0.2211,0.2153,0.2132,0.2095,0.204,0.1998,0.1947,0.1927,0.1888,0.1866,0.1813,0.1822,0.1749,0.1773,0.1744,0.1722,0.1719,0.1711,0.1722,0.1698,0.1654,0.1647,0.1705,0.1706,0.1707,0,0.2322,0.224,0.2184,0.2159,0.209,0.2064,0.2034,0.1984,0.1951,0.1903,0.1881,0.1827,0.1797,0.1755,0.1719,0.1729,0.1649,0.1655,0.163,0.1631,0.1613,0.1614,0.1563,0.1596,0.1597,0.1597,0.1597,0,0.2277,0.2232,0.2178,0.2144,0.2092,0.2056,0.2005,0.1973,0.1929,0.1888,0.1863,0.1824,0.1779,0.1734,0.1705,0.1649,0.1635,0.1617,0.161,0.1619,0.1621,0.1599,0.16,0.1595,0.1595,0.1596,0.1596,0,0.2255,0.2218,0.2155,0.2096,0.208,0.2044,0.1992,0.1958,0.1926,0.1874,0.186,0.181,0.1756,0.1716,0.1646,0.1627,0.1566,0.1559,0.1584,0.158,0.1557,0.156,0.1489,0.1478,0.152,0.1519,0.1519,0,0.2229,0.2194,0.2131,0.2102,0.2072,0.2025,0.1992,0.1955,0.1922,0.1862,0.1834,0.1779,0.1733,0.1648,0.1605,0.1551,0.1542,0.1521,0.1534,0.1544,0.1541,0.1543,0.1539,0.1519,0.1519,0.1519,0.1519,0,0.2185,0.2169,0.2123,0.2071,0.2033,0.199,0.1946,0.1924,0.1879,0.1842,0.1788,0.1752,0.1682,0.1627,0.1569,0.1537,0.152,0.1515,0.1506,0.1515,0.153,0.1521,0.1579,0.1517,0.1517,0.1517,0.1517,0.1517,0.216,0.2127,0.2078,0.2028,0.1992,0.1952,0.1917,0.1882,0.1836,0.1776,0.1757,0.1701,0.165,0.1572,0.1539,0.1494,0.1494,0.1481,0.1478,0.1475,0.1475,0.1539,0.1483,0.1483,0.1483,0.1483,0.1483,0,0.2114,0.2082,0.2037,0.1977,0.1938,0.1927,0.1879,0.1846,0.1797,0.1752,0.1708,0.1645,0.1592,0.1546,0.1491,0.1463,0.1454,0.145,0.1451,0.1444,0.1479,0.1492,0.1459,0.1459,0.1459,0.1459,0.1459,0.1459,0.2086,0.2031,0.2009,0.1935,0.1903,0.1848,0.1822,0.1784,0.1749,0.168,0.1637,0.1607,0.1562,0.1503,0.1454,0.1442,0.1422,0.142,0.1406,0.1439,0.1442,0.1444,0.1456,0.1416,0.1416,0.1375,0.1374,0.1374]}]]